Tracking 30995 objects as of 7-Jul-2025
HD Live streaming from Space Station
objects crossing your sky now

FENGYUN 1C DEB

Track FENGYUN 1C DEB now!
10-day predictions


NORAD ID: 37069
Int'l Code: 1999-025EFD
Perigee: 809.3 km
Apogee: 1,446.0 km
Inclination: 95.8 °
Period: 107.7 minutes
Semi major axis: 7498 km
RCS: 0.0144 m2 (small)
Launch date: May 10, 1999
Source: People's Republic of China (PRC)
Launch site: Taiyaun Space Center, China (TSC)

Note: This is SATELLITE DEBRIS
Your satellite tracking list
Your tracking list is empty




NASA's NSSDC Master Catalog

Two Line Element Set (TLE):
1 37069U 99025EFD 25183.33531240  .00000808  00000-0  94792-3 0  9990
2 37069  95.8415 222.7590 0424559 336.3509  21.8608 13.36998930855244
Source of the keplerian elements: AFSPC